Regional Weather Roundup
Issued by NWS Little Rock, AR

Home | Current Version | Previous Version | Graphics & Text | Print | Product List | Glossary On
Versions: 1 2 3 4 5 6 7 8 9 10 11 12 13 14 15 16 17 18 19 20 21 22 23 24 25 26 27 28 29 30 31 32 33 34 35 36 37 38 39 40 41 42 43 44 45 46 47 48 49 50
000
ASUS44 KLZK 170405
RWRLZK

WEATHER ROUNDUP FOR ARKANSAS
NATIONAL WEATHER SERVICE LITTLE ROCK AR
1100 PM CDT TUE SEP 16 2014

NOTE: "FAIR" INDICATES FEW OR NO CLOUDS BELOW 12,000 FEET WITH NO
SIGNIFICANT WEATHER AND/OR OBSTRUCTIONS TO VISIBILITY.

ARZ001-003-010-029-170500-
NORTHWEST ARKANSAS

CITY           SKY/WX    TMP DP  RH WIND       PRES   REMARKS
FAYETTEVILLE   FOG       65  65 100 CALM      30.06S VSB 1/2
FORT SMITH     CLEAR     70  67  90 E7        30.04R
HARRISON       FOG       64  64 100 SE7       30.09F VSB 1/2
BENTONVILLE    CLEAR     66  63  88 SE5       30.07S
ROGERS         CLEAR     66  64  93 E6        30.07S
SILOAM SPGS    CLEAR     66  63  88 SE3       30.07S
HIGHFILL       CLEAR     67  65  93 CALM      30.06S
$$

ARZ004-005-016-170500-
NORTH CENTRAL ARKANSAS

CITY           SKY/WX    TMP DP  RH WIND       PRES   REMARKS
BATESVILLE     CLOUDY    66  57  72 CALM      30.09S
FLIPPIN        CLOUDY    66  59  77 CALM      30.09S
MTN HOME       CLOUDY    65  62  90 SE3       30.08S
$$

ARZ040-041-170500-
WEST CENTRAL ARKANSAS

CITY           SKY/WX    TMP DP  RH WIND       PRES   REMARKS
MENA           PTCLDY    73  70  88 CALM      30.08R
MOUNT IDA      MOCLDY    71  68  90 CALM      30.05R
$$

ARZ009-017-025-026-028-170500-
NORTHEAST ARKANSAS

CITY           SKY/WX    TMP DP  RH WIND       PRES   REMARKS
CORNING          N/A     64  57  77 E6        30.10R
JONESBORO      CLOUDY    67  60  78 NE6       30.08R
NEWPORT        CLOUDY    65  62  90 CALM      30.10R
WALNUT RIDGE   CLOUDY    66  61  82 NE3       30.09R
BLYTHEVILLE    CLOUDY    66  60  81 NE6       30.08S
$$

ARZ022-023-033-042-044-170500-
CENTRAL ARKANSAS

CITY           SKY/WX    TMP DP  RH WIND       PRES   REMARKS
LITTLE ROCK    CLEAR     69  64  84 E8        30.07R
N LITTLE ROCK  CLEAR     67  64  90 E7        30.07R
JACKSONVILLE   CLEAR     66  61  85 NE7       30.08R
SEARCY         CLEAR     64  60  87 NE5       30.09R
HOT SPRINGS    CLEAR     71  68  90 E5        30.07R
RUSSELLVILLE     N/A    N/A N/A N/A MISG      30.07R
CLINTON        CLOUDY    70  66  88 CALM      30.09S
$$

ARZ036-170500-
EAST ARKANSAS

CITY           SKY/WX    TMP DP  RH WIND       PRES   REMARKS
WEST MEMPHIS   CLEAR     65  62  90 NE3       30.06S
$$

ARZ050-053-066-070-073-170500-
SOUTHWEST ARKANSAS

CITY           SKY/WX    TMP DP  RH WIND       PRES   REMARKS
ARKADELPHIA    FAIR      73  70  91 NE5       30.06R
CAMDEN         CLEAR     72  68  88 NE3       30.04S
TEXARKANA      MOCLDY    75  69  81 SE5       30.03S
EL DORADO      CLEAR     70  69  97 CALM      30.04S
DE QUEEN       PTCLDY    72  71  97 CALM      30.02R FOG
$$

ARZ056-057-069-170500-
SOUTHEAST ARKANSAS

CITY           SKY/WX    TMP DP  RH WIND       PRES   REMARKS
PINE BLUFF     MOCLDY    70  67  90 N3        30.06R
STUTTGART      MOCLDY    68  63  83 NE7       30.07S
MONTICELLO     CLEAR     72  68  87 CALM      30.04S

$$




USA.gov is the U.S. government's official web portal to all federal, state and local government web resources and services.